THOR ABLESTAR DEB, 3932

Orbit data source: Space-Track

THOR ABLESTAR DEB, 3932 is space debris in LEO originally from a launch on Thu, 29 Jun 1961 UTC launched from the Air Force Eastern Test Range (AFETR). Debris objects in space refer to the collection of defunct objects orbiting the Earth. Examples of debris include non-operational satellites, rocket bodies, and fragments generated from explosions, collisions, or faulty payload assembly.

Loading next visibility...
Identifier
3932, 1961-015JG
Orbit
LEO
Country
Flag of USUS
Related business
Manufacturer
Unknown
Mission
Spacecraft
Bus & Motor
Unknown
Mass
Unknown
Launch date (UTC)
1961-06-29 (64 years ago)
Launch vehicle
Unknown
Launch site
Air Force Eastern Test Range (AFETR)
Object type
Payload
Rocket body
Debris
Shape & HBR
Unknown shape, 0.1 m
Radar Cross Section
Small (<0.1 m²)

Expand to show TLE details & history
Last TLE update: 19 hours ago

TLE from 19 hours ago
0 THOR ABLESTAR DEB
1 03932U 61015JG  25346.57230733  .00000867  00000-0  17095-2 0  9995
2 03932  65.7972 132.9157 0287494 199.7787 249.2973 13.25850807127066
Epoch: 2025-12-12T13:44Z
TLE epoch observation values (Epoch: 2025-12-12T13:44:07.353Z)
Latitude
65.60163°
Longitude
-74.23646°
Altitude
1,254.901 km
Speed
7.195 km/s
True Right ascension
14h 13m 13s
True Declination
65° 28' 50"
Sunlit
Object was in daylight at epoch
Visualization orbit readout
Latitude
Unknown
Longitude
Unknown
Altitude
Unknown
Speed
Unknown
Apparent Right ascension
Unknown
Apparent Declination
Unknown
Sunlit
N/A
Visualization observer readout
Local Sidereal Time
07:32:41
Azimuth
Unknown
Elevation
Unknown
Doppler factor
Unknown
Orbital elements
Apogee altitude
1,377.755 km
Perigee altitude
944.264 km
Semi-major axis
7,539.147 km
Eccentricity
0.02875
Inclination
65.7972°
RAAN
132.9157°
Arg. of periapsis
199.7787°
True anomaly
246.2557°
Mean anomaly
249.2973°
Eccentric anomaly
247.77249°
Mean motion
3.31558 °/min
Orbital period
108.58 mins
BSTAR
0.0017095
Loading maneuver chart data...
Computing Atmospheric mass density...

Documentation

Showing up to 5 results
|